Weather History for KC75 - December, 2012

Change the Weather History Date:

Saturday, December 22, 2012

  Actual Average (KPIA) Record (KPIA)
Temperature  
Mean Temperature 20 °F 27 °F  
Max Temperature 32 °F 34 °F 58 °F (1933)
Min Temperature 9 °F 19 °F -23 °F (1989)
Degree Days  
Heating Degree Days 44 38  
Month to date heating degree days 777  
Since 1 July heating degree days 1925  
Cooling Degree Days 0 0  
Month to date cooling degree days 0  
Year to date cooling degree days 1039  
Moisture  
Dew Point 15 °F    
Average Humidity 79    
Maximum Humidity 95    
Minimum Humidity 54    
Precipitation  
Precipitation 0.00 in 0.07 in 1.10 in (1932)
Month to date precipitation 1.81  
Year to date precipitation 35.88  
Sea Level Pressure  
Sea Level Pressure 30.12 in    
Wind  
Wind Speed 2 mph (SE)    
Max Wind Speed 9 mph    
Max Gust Speed -    
Visibility 10 miles    
Events      
T = Trace of Precipitation, MM = Missing Value Source: NWS Daily Summary

Daily Weather History Graph

Daily Weather History Graph

Search for Another Location

Airport or City:

Trip Planner

Search our weather history database for the weather conditions in past years. The results will help you decide how hot, cold, wet, or windy it might be!

Date:

Astronomy

Dec. 22, 2012 Rise Set
Actual Time 7:19 AM CST 4:33 PM CST
Civil Twilight 6:48 AM CST 5:04 PM CST
Nautical Twilight 6:13 AM CST 5:39 PM CST
Astronomical Twilight 5:40 AM CST 6:12 PM CST
Moon 12:52 PM CST (12/22) 2:03 AM CST (12/22)
Length of Visible Light 10h 15m
Length of Day
9h 13m
Waxing Gibbous, 74% of the Moon is Illuminated
Dec 22
Waxing Gibbous
Dec 28
Full
Jan 4
Last Quarter
Jan 11
New
Jan 18
First Quarter

Hourly Weather History & Observations

Time (CST) Temp. Windchill Dew Point Humidity Pressure Visibility Wind Dir Wind Speed Gust Speed Precip Events Conditions
12:15 AM 15.3 °F 9.6 °F 9.3 °F 77% 30.24 in 10.0 mi West 3.5 mph - N/A   Clear
12:35 AM 13.5 °F - 8.8 °F 82% 30.23 in 10.0 mi Calm Calm - N/A   Clear
12:55 AM 12.2 °F - 8.6 °F 85% 30.24 in 10.0 mi Calm Calm - N/A   Clear
1:15 AM 12.2 °F 4.3 °F 9.0 °F 87% 30.25 in 10.0 mi West 4.6 mph - N/A   Unknown
1:35 AM 14.5 °F - 9.5 °F 80% 30.25 in 10.0 mi Calm Calm - N/A   Unknown
1:55 AM 14.5 °F - 9.3 °F 80% 30.25 in 10.0 mi Calm Calm - N/A   Clear
2:15 AM 12.4 °F - 8.4 °F 84% 30.24 in 10.0 mi Calm Calm - N/A   Clear
2:35 AM 11.8 °F - 8.1 °F 85% 30.24 in 10.0 mi Calm Calm - N/A   Scattered Clouds
2:55 AM 10.4 °F 4.0 °F 8.6 °F 92% 30.25 in 10.0 mi WSW 3.5 mph - N/A   Clear
3:15 AM 12.7 °F - 8.6 °F 84% 30.25 in 10.0 mi Calm Calm - N/A   Unknown
3:35 AM 9.3 °F - 6.4 °F 88% 30.25 in 10.0 mi Calm Calm - N/A   Unknown
3:55 AM 10.0 °F - 7.0 °F 87% 30.25 in 10.0 mi Calm Calm - N/A   Unknown
4:15 AM 12.2 °F - 8.4 °F 85% 30.24 in 10.0 mi Calm Calm - N/A   Clear
4:35 AM 10.4 °F - 7.7 °F 89% 30.24 in 10.0 mi Calm Calm - N/A   Clear
4:55 AM 11.3 °F - 8.2 °F 87% 30.24 in 10.0 mi Calm Calm - N/A   Unknown
5:15 AM 10.8 °F - 8.1 °F 89% 30.24 in 10.0 mi Calm Calm - N/A   Scattered Clouds
5:35 AM 11.1 °F - 8.2 °F 88% 30.24 in 10.0 mi Calm Calm - N/A   Unknown
5:55 AM 11.1 °F - 7.9 °F 87% 30.25 in 10.0 mi Calm Calm - N/A   Unknown
6:15 AM 11.1 °F - 8.1 °F 87% 30.24 in 10.0 mi Calm Calm - N/A   Clear
6:35 AM 9.7 °F - 7.5 °F 91% 30.24 in 10.0 mi Calm Calm - N/A   Scattered Clouds
6:55 AM 9.7 °F - 6.6 °F 87% 30.24 in 10.0 mi Calm Calm - N/A   Clear
7:15 AM 10.2 °F - 8.1 °F 91% 30.24 in 7.0 mi Calm Calm - N/A   Clear
7:35 AM 9.9 °F - 7.5 °F 90% 30.24 in 7.0 mi Calm Calm - N/A   Clear
7:55 AM 10.8 °F - 8.4 °F 90% 30.23 in 10.0 mi Calm Calm - N/A   Clear
8:15 AM 12.0 °F - 9.3 °F 89% 30.24 in 7.0 mi Calm Calm - N/A   Clear
8:35 AM 13.8 °F - 10.8 °F 88% 30.24 in 7.0 mi Calm Calm - N/A   Clear
8:55 AM 14.9 °F - 11.3 °F 86% 30.24 in 10.0 mi Calm Calm - N/A   Unknown
9:15 AM 16.3 °F - 12.2 °F 84% 30.24 in 10.0 mi Calm Calm - N/A   Unknown
9:35 AM 18.3 °F - 12.7 °F 79% 30.24 in 10.0 mi Calm Calm - N/A   Unknown
9:55 AM 19.2 °F - 13.1 °F 77% 30.23 in 10.0 mi Calm Calm - N/A   Unknown
10:15 AM 21.4 °F - 14.2 °F 74% 30.23 in 10.0 mi Calm Calm - N/A   Unknown
10:35 AM 22.3 °F - 14.4 °F 72% 30.22 in 10.0 mi Calm Calm - N/A   Unknown
10:55 AM 23.9 °F - 15.1 °F 69% 30.20 in 10.0 mi Calm Calm - N/A   Unknown
11:15 AM 25.5 °F - 15.3 °F 65% 30.18 in 10.0 mi Calm Calm - N/A   Unknown
11:35 AM 26.4 °F 19.8 °F 16.3 °F 66% 30.18 in 10.0 mi ESE 5.8 mph - N/A   Unknown
11:55 AM 27.5 °F 22.2 °F 16.7 °F 64% 30.16 in 10.0 mi ESE 4.6 mph - N/A   Clear
12:15 PM 28.4 °F 22.2 °F 17.2 °F 63% 30.15 in 10.0 mi ESE 5.8 mph - N/A   Clear
12:35 PM 29.3 °F 22.3 °F 18.5 °F 64% 30.13 in 10.0 mi ESE 6.9 mph - N/A   Clear
12:55 PM 30.2 °F 23.4 °F 19.2 °F 64% 30.12 in 10.0 mi ESE 6.9 mph - N/A   Clear
1:15 PM 31.5 °F 24.9 °F 19.6 °F 62% 30.11 in 10.0 mi ESE 6.9 mph - N/A   Clear
1:35 PM 31.5 °F 23.5 °F 19.2 °F 61% 30.09 in 10.0 mi SE 9.2 mph - N/A   Clear
1:55 PM 32.0 °F 25.6 °F 19.0 °F 59% 30.09 in 10.0 mi ESE 6.9 mph - N/A   Clear
2:15 PM 32.0 °F 24.2 °F 19.0 °F 59% 30.08 in 10.0 mi SE 9.2 mph - N/A   Clear
2:35 PM 32.0 °F 24.8 °F 18.1 °F 57% 30.07 in 10.0 mi SE 8.1 mph - N/A   Clear
2:55 PM 32.4 °F 25.3 °F 17.2 °F 54% 30.06 in 10.0 mi SE 8.1 mph - N/A   Clear
3:15 PM 32.0 °F 26.4 °F 19.2 °F 59% 30.06 in 10.0 mi SE 5.8 mph - N/A   Unknown
3:35 PM 32.0 °F 24.2 °F 19.4 °F 60% 30.05 in 10.0 mi SE 9.2 mph - N/A   Clear
3:55 PM 31.5 °F 25.8 °F 21.4 °F 66% 30.04 in 10.0 mi SE 5.8 mph - N/A   Clear
4:15 PM 31.1 °F 23.7 °F 20.8 °F 66% 30.02 in 10.0 mi ESE 8.1 mph - N/A   Clear
4:35 PM 30.0 °F 24.1 °F 21.2 °F 70% 30.02 in 10.0 mi SE 5.8 mph - N/A   Clear
4:55 PM 29.3 °F 24.3 °F 21.0 °F 71% 30.02 in 10.0 mi SE 4.6 mph - N/A   Clear
5:15 PM 27.9 °F 24.0 °F 21.2 °F 76% 30.01 in 10.0 mi SSE 3.5 mph - N/A   Clear
5:35 PM 27.5 °F 22.2 °F 21.2 °F 77% 30.00 in 10.0 mi SSE 4.6 mph - N/A   Scattered Clouds
5:55 PM 28.0 °F 21.7 °F 21.7 °F 77% 29.99 in 10.0 mi SSE 5.8 mph - N/A   Clear
6:15 PM 28.4 °F 22.2 °F 22.1 °F 77% 29.99 in 10.0 mi SSE 5.8 mph - N/A   Scattered Clouds
6:35 PM 28.2 °F 23.1 °F 22.3 °F 78% 29.99 in 10.0 mi SSE 4.6 mph - N/A   Clear
6:55 PM 27.7 °F 23.8 °F 22.1 °F 80% 30.01 in 10.0 mi SSE 3.5 mph - N/A   Scattered Clouds
7:15 PM 27.5 °F 22.2 °F 22.6 °F 82% 30.00 in 10.0 mi SE 4.6 mph - N/A   Scattered Clouds
7:35 PM 27.0 °F 20.5 °F 22.3 °F 83% 29.99 in 10.0 mi SE 5.8 mph - N/A   Clear
7:55 PM 27.5 °F 21.1 °F 22.8 °F 83% 29.98 in 10.0 mi SE 5.8 mph - N/A   Clear
8:15 PM 27.5 °F 22.2 °F 22.6 °F 82% 29.97 in 10.0 mi SSE 4.6 mph - N/A   Scattered Clouds
8:35 PM 27.9 °F 19.1 °F 22.8 °F 81% 29.95 in 10.0 mi SE 9.2 mph - N/A   Scattered Clouds
8:55 PM 27.3 °F - 22.6 °F 83% 29.96 in 10.0 mi Calm Calm - N/A   Clear
9:15 PM 24.8 °F 20.5 °F 20.3 °F 83% 29.96 in 10.0 mi ESE 3.5 mph - N/A   Clear
9:35 PM 23.0 °F - 20.3 °F 89% 29.96 in 10.0 mi Calm Calm - N/A   Clear
9:55 PM 21.2 °F 16.4 °F 19.2 °F 92% 29.95 in 10.0 mi East 3.5 mph - N/A   Scattered Clouds
10:15 PM 20.8 °F - 19.2 °F 93% 29.94 in 10.0 mi Calm Calm - N/A   Clear
10:35 PM 21.6 °F - 19.6 °F 92% 29.94 in 10.0 mi Calm Calm - N/A   Clear
10:55 PM 20.5 °F - 18.5 °F 92% 29.94 in 10.0 mi Calm Calm - N/A   Clear
11:15 PM 21.7 °F 17.0 °F 19.6 °F 91% 29.94 in 10.0 mi NNW 3.5 mph - N/A   Clear
11:35 PM 20.3 °F - 19.0 °F 95% 29.93 in 10.0 mi Calm Calm - N/A   Scattered Clouds
11:55 PM 19.6 °F - 18.1 °F 94% 29.93 in 10.0 mi Calm Calm - N/A   Clear